Terminal Aerodrome Forecast
Issued by NWS Brownsville, TX

Home | Current Version | Previous Version | Text Only | Print | Product List | Glossary On
Versions: 1 2 3 4 5 6 7 8 9 10 11 12 13 14 15 16 17 18 19 20 21 22 23 24 25 26 27 28 29 30 31 32 33 34 35 36 37 38
161
FTUS44 KBRO 080526
TAFBRO
TAF
KBRO 080526Z 0806/0906 VRB02KT P6SM SKC
      TEMPO 0807/0811 5SM BR
     FM081100 15005KT P6SM FEW010
     FM081700 16013G18KT P6SM SCT050=

USA.gov is the U.S. government's official web portal to all federal, state and local government web resources and services.